Weather History for Defiance, OH

Change the Weather History Date:

Monday, January 21, 2013

  Actual Average Record
Temperature  
Mean Temperature 14 °F -  
Max Temperature 19 °F 29 °F 59 °F (1951)
Min Temperature 8 °F 14 °F -21 °F (1984)
Degree Days  
Heating Degree Days 52    
Moisture  
Dew Point 2 °F    
Average Humidity 57    
Maximum Humidity 68    
Minimum Humidity 44    
Precipitation  
Precipitation 0.00 in - - ()
Sea Level Pressure  
Sea Level Pressure 30.12 in    
Wind  
Wind Speed 8 mph (WSW)    
Max Wind Speed 17 mph    
Max Gust Speed 28 mph    
Visibility 9 miles    
Events Snow    
Averages and records for this station are not official NWS values.
T = Trace of Precipitation, MM = Missing Value Source: NWS Daily Summary

Daily Weather History Graph

Daily Weather History Graph

Search for Another Location

Airport:

Trip Planner

Search our weather history database for the weather conditions in past years. The results will help you decide how hot, cold, wet, or windy it might be!

Date:

Astronomy

Jan. 21, 2013 Rise Set
Actual Time 7:57 AM EST 5:40 PM EST
Civil Twilight 7:27 AM EST 6:10 PM EST
Nautical Twilight 6:54 AM EST 6:44 PM EST
Astronomical Twilight 6:21 AM EST 7:17 PM EST
Moon 1:19 PM EST (1/21) 3:25 AM EST (1/21)
Length of Visible Light 10h 42m
Length of Day
9h 42m
Waxing Gibbous, 75% of the Moon is Illuminated
Jan 21
Waxing Gibbous
Jan 26
Full
Feb 3
Last Quarter
Feb 10
New
Feb 17
First Quarter

Hourly Weather History & Observations

Time (EST) Temp. Windchill Dew Point Humidity Pressure Visibility Wind Dir Wind Speed Gust Speed Precip Events Conditions
12:53 AM 19.9 °F - 8.1 °F 60% 30.17 in 10.0 mi Calm Calm - N/A   Overcast
1:53 AM 19.0 °F 12.3 °F 10.0 °F 68% 30.16 in 10.0 mi SW 4.6 mph - N/A   Overcast
2:53 AM 19.0 °F 11.1 °F 9.0 °F 65% 30.16 in 10.0 mi SW 5.8 mph - N/A   Overcast
3:53 AM 19.0 °F 11.1 °F 9.0 °F 65% 30.14 in 10.0 mi WSW 5.8 mph - N/A   Overcast
4:53 AM 19.9 °F 12.1 °F 8.1 °F 60% 30.12 in 10.0 mi WSW 5.8 mph - N/A   Overcast
5:53 AM 19.0 °F 9.0 °F 7.0 °F 59% 30.10 in 10.0 mi WSW 8.1 mph 16.1 mph N/A   Overcast
6:53 AM 18.0 °F 5.4 °F 5.0 °F 57% 30.10 in 10.0 mi West 11.5 mph 16.1 mph N/A   Mostly Cloudy
7:53 AM 18.0 °F 7.7 °F 3.9 °F 54% 30.10 in 10.0 mi West 8.1 mph 17.3 mph N/A   Overcast
8:53 AM 17.1 °F 5.0 °F 3.0 °F 54% 30.09 in 10.0 mi WSW 10.4 mph 20.7 mph N/A   Overcast
9:53 AM 18.0 °F 5.4 °F 3.9 °F 54% 30.09 in 10.0 mi West 11.5 mph 20.7 mph N/A   Overcast
10:50 AM 17.6 °F 4.3 °F 6.8 °F 63% 30.05 in 3.0 mi WSW 12.7 mph 20.7 mph 0.00 in Snow Light Snow
10:53 AM 17.1 °F 3.0 °F 7.0 °F 65% 30.09 in 3.0 mi WSW 13.8 mph 21.9 mph 0.00 in Snow Light Snow
11:10 AM 17.6 °F 6.4 °F 3.2 °F 53% 30.05 in 10.0 mi West 9.2 mph 21.9 mph 0.00 in   Overcast
11:53 AM 18.0 °F 6.1 °F 1.9 °F 50% 30.08 in 10.0 mi West 10.4 mph 23.0 mph 0.00 in   Overcast
12:53 PM 18.0 °F 7.7 °F 1.9 °F 50% 30.06 in 10.0 mi West 8.1 mph 23.0 mph N/A   Overcast
1:53 PM 18.0 °F 4.2 °F -0.9 °F 44% 30.05 in 10.0 mi WSW 13.8 mph 26.5 mph N/A   Overcast
2:53 PM 18.0 °F 4.8 °F 1.0 °F 48% 30.07 in 10.0 mi West 12.7 mph 23.0 mph N/A   Mostly Cloudy
3:53 PM 17.1 °F 4.3 °F -0.9 °F 45% 30.09 in 10.0 mi West 11.5 mph 20.7 mph N/A   Mostly Cloudy
4:53 PM 15.1 °F -1.1 °F 1.0 °F 54% 30.12 in 6.0 mi West 17.3 mph 27.6 mph 0.00 in Snow Light Snow
5:02 PM 15.8 °F 2.1 °F 1.4 °F 53% 30.08 in 5.0 mi West 12.7 mph 23.0 mph 0.00 in Snow Light Snow
5:34 PM 12.2 °F -2.5 °F 3.2 °F 67% 30.09 in 1.8 mi WNW 12.7 mph 27.6 mph 0.00 in Snow Light Snow
5:45 PM 12.2 °F -1.0 °F 3.2 °F 67% 30.09 in 2.5 mi West 10.4 mph 20.7 mph 0.00 in Snow Light Snow
5:53 PM 12.9 °F 0.7 °F -0.0 °F 56% 30.14 in 9.0 mi West 9.2 mph 20.7 mph 0.00 in   Mostly Cloudy
6:11 PM 12.2 °F 2.9 °F -0.4 °F 57% 30.10 in 10.0 mi Variable 5.8 mph - N/A   Mostly Cloudy
6:53 PM 12.0 °F 2.7 °F -2.0 °F 53% 30.16 in 10.0 mi Variable 5.8 mph - N/A   Clear
7:53 PM 10.9 °F -1.8 °F -2.0 °F 56% 30.17 in 10.0 mi WSW 9.2 mph - N/A   Scattered Clouds
8:53 PM 10.0 °F -1.9 °F -2.9 °F 56% 30.17 in 10.0 mi West 8.1 mph 16.1 mph N/A   Scattered Clouds
9:53 PM 9.0 °F -3.2 °F -4.0 °F 56% 30.19 in 10.0 mi West 8.1 mph 21.9 mph N/A   Partly Cloudy
10:53 PM 9.0 °F -5.1 °F -4.0 °F 56% 30.19 in 10.0 mi West 10.4 mph 20.7 mph N/A   Mostly Cloudy
11:50 PM 8.6 °F -3.7 °F -2.2 °F 62% 30.16 in 8.0 mi West 8.1 mph 20.7 mph 0.00 in Snow Light Snow
11:53 PM 9.0 °F -5.1 °F -2.0 °F 61% 30.21 in 8.0 mi WSW 10.4 mph 20.7 mph 0.00 in   Overcast